Lorton, VA

6:22 AM EST on January 23, 2017 (GMT -0500)
Davison Army Air Field

Weather History for KDAA - October, 2013

Change the Weather History Date:

Saturday, October 12, 2013

  Actual Average Record
Temperature  
Mean Temperature 63 °F -  
Max Temperature 66 °F 69 °F 83 °F (2010)
Min Temperature 60 °F 45 °F 35 °F (1996)
Degree Days  
Heating Degree Days 2    
Growing Degree Days 13 (Base 50)    
Moisture  
Dew Point 62 °F    
Average Humidity 97    
Maximum Humidity 100    
Minimum Humidity 75    
Precipitation  
Precipitation 0.38 in - - ()
Sea Level Pressure  
Sea Level Pressure 30.05 in    
Wind  
Wind Speed 3 mph (NNE)    
Max Wind Speed 7 mph    
Max Gust Speed -    
Visibility 8 miles    
Events Rain    
Averages and records for this station are not official NWS values.
T = Trace of Precipitation, MM = Missing Value Source: NWS Daily Summary

Daily Weather History Graph

Daily Weather History Graph

Search for Another Location

Airport or City:

Trip Planner

Search our weather history database for the weather conditions in past years. The results will help you decide how hot, cold, wet, or windy it might be!

Date:

Astronomy

Oct. 12, 2013 Rise Set
Actual Time 7:15 AM EDT 6:34 PM EDT
Civil Twilight 6:48 AM EDT 7:01 PM EDT
Nautical Twilight 6:17 AM EDT 7:31 PM EDT
Astronomical Twilight 5:46 AM EDT 8:02 PM EDT
Moon 2:38 PM EDT (10/12) 12:20 AM EDT (10/12)
Length of Visible Light 12h 12m
Length of Day
11h 19m
First Quarter, 58% of the Moon is Illuminated
Oct 12
First Quarter
Oct 18
Full
Oct 26
Last Quarter
Nov 3
New
Nov 10
First Quarter

Hourly Weather History & Observations

Time (EDT) Temp. Dew Point Humidity Pressure Visibility Wind Dir Wind Speed Gust Speed Precip Events Conditions
12:23 AM 62.6 °F 62.6 °F 100% 29.98 in 10.0 mi Variable 1.2 mph - N/A   Overcast
12:43 AM 62.6 °F 62.6 °F 100% 29.98 in 10.0 mi Variable 2.3 mph - N/A   Overcast
12:58 AM 63.3 °F 63.0 °F 99% 29.99 in 10.0 mi Variable 4.6 mph - N/A   Overcast
1:19 AM 62.6 °F 62.6 °F 100% 29.99 in 8.0 mi Variable 2.3 mph - N/A   Light Drizzle
1:29 AM 62.6 °F 62.6 °F 100% 29.99 in 6.0 mi Variable 4.6 mph - N/A   Light Drizzle
1:34 AM 62.6 °F 62.6 °F 100% 29.99 in 4.0 mi Variable 3.5 mph - N/A   Light Drizzle
1:39 AM 62.6 °F 62.6 °F 100% 29.99 in 5.0 mi Variable 4.6 mph - N/A   Light Drizzle
1:44 AM 62.6 °F 62.6 °F 100% 29.99 in 9.0 mi Variable 3.5 mph - N/A   Overcast
1:49 AM 62.6 °F 62.6 °F 100% 29.99 in 10.0 mi Variable 3.5 mph - N/A   Overcast
1:58 AM 63.1 °F 62.8 °F 99% 30.00 in 10.0 mi Variable 4.6 mph - 0.00 in   Overcast
2:03 AM 62.6 °F 62.6 °F 100% 29.99 in 10.0 mi Variable 3.5 mph - N/A   Overcast
2:08 AM 62.6 °F 62.6 °F 100% 29.99 in 10.0 mi Variable 6.9 mph - N/A   Overcast
2:18 AM 62.6 °F 62.6 °F 100% 29.99 in 9.0 mi Variable 2.3 mph - N/A   Overcast
2:33 AM 62.6 °F 62.6 °F 100% 29.99 in 9.0 mi Variable 3.5 mph - N/A   Overcast
2:53 AM 62.6 °F 62.6 °F 100% 29.99 in 10.0 mi Variable 1.2 mph - N/A   Mostly Cloudy
2:58 AM 63.1 °F 62.8 °F 99% 30.00 in 10.0 mi Variable 2.3 mph - N/A   Overcast
3:11 AM 62.6 °F 62.6 °F 100% 29.99 in 9.0 mi Variable 3.5 mph - N/A Rain Light Rain
3:16 AM 62.6 °F 62.6 °F 100% 29.99 in 6.0 mi Variable 3.5 mph - N/A Rain Light Rain
3:21 AM 62.6 °F 62.6 °F 100% 29.99 in 2.5 mi Variable 1.2 mph - N/A Rain Light Rain
3:26 AM 62.6 °F 62.6 °F 100% 30.00 in 1.2 mi Variable 2.3 mph - N/A Rain Heavy Rain
3:31 AM 62.6 °F 62.6 °F 100% 29.99 in 1.0 mi Variable 2.3 mph - N/A Rain Heavy Rain
3:36 AM 62.6 °F 62.6 °F 100% 29.99 in 1.5 mi Variable 4.6 mph - N/A Rain Light Rain
3:41 AM 62.6 °F 62.6 °F 100% 29.99 in 6.0 mi Variable 1.2 mph - N/A Rain Light Rain
3:44 AM 62.6 °F 62.6 °F 100% 30.00 in 10.0 mi Variable 4.6 mph - N/A   Overcast
3:58 AM 62.6 °F 62.6 °F 100% 30.01 in 10.0 mi North 3.5 mph - 0.25 in   Overcast
4:03 AM 62.6 °F 62.6 °F 100% 30.00 in 8.0 mi Variable 2.3 mph - N/A   Overcast
4:08 AM 62.6 °F 62.6 °F 100% 30.00 in 6.0 mi Variable 5.8 mph - N/A   Light Drizzle
4:18 AM 62.6 °F 62.6 °F 100% 30.01 in 6.0 mi Variable 4.6 mph - N/A   Overcast
4:21 AM 62.6 °F 62.6 °F 100% 30.01 in 5.0 mi Variable 1.2 mph - N/A   Light Drizzle
4:30 AM 62.6 °F 62.6 °F 100% 30.01 in 6.0 mi Variable 3.5 mph - N/A   Overcast
4:34 AM 62.6 °F 62.6 °F 100% 30.01 in 6.0 mi Variable 3.5 mph - N/A   Light Drizzle
4:58 AM 62.6 °F 62.2 °F 99% 30.02 in 10.0 mi Variable 2.3 mph - 0.01 in Rain Light Rain
4:59 AM 62.6 °F 62.6 °F 100% 30.01 in 10.0 mi Variable 4.6 mph - N/A   Overcast
5:04 AM 62.6 °F 62.6 °F 100% 30.01 in 10.0 mi Variable 2.3 mph - N/A   Overcast
5:06 AM 62.6 °F 62.6 °F 100% 30.01 in 8.0 mi Variable 2.3 mph - N/A   Light Drizzle
5:16 AM 62.6 °F 62.6 °F 100% 30.01 in 4.0 mi Variable 3.5 mph - N/A Rain Light Rain
5:26 AM 62.6 °F 62.6 °F 100% 30.01 in 4.0 mi Variable 3.5 mph - N/A Rain Light Rain
5:31 AM 62.6 °F 62.6 °F 100% 30.01 in 5.0 mi Variable 1.2 mph - N/A Rain Light Rain
5:36 AM 62.6 °F 62.6 °F 100% 30.01 in 6.0 mi Variable 2.3 mph - N/A   Light Drizzle
5:39 AM 62.6 °F 62.6 °F 100% 30.01 in 7.0 mi Variable 4.6 mph - N/A   Overcast
5:49 AM 62.6 °F 62.6 °F 100% 30.02 in 9.0 mi NNE 4.6 mph - N/A Rain Light Rain
5:54 AM 62.6 °F 62.6 °F 100% 30.02 in 6.0 mi Variable 4.6 mph - N/A Rain Light Rain
5:58 AM 62.6 °F 62.6 °F 100% 30.03 in 5.0 mi North 4.6 mph - 0.02 in Rain Light Rain
6:03 AM 62.6 °F 62.6 °F 100% 30.02 in 6.0 mi Variable 2.3 mph - N/A Rain Light Rain
6:13 AM 62.6 °F 62.6 °F 100% 30.02 in 7.0 mi Variable 2.3 mph - N/A Rain Light Rain
6:18 AM 62.6 °F 62.6 °F 100% 30.02 in 3.0 mi Variable 4.6 mph - N/A Rain Light Rain
6:23 AM 62.6 °F 62.6 °F 100% 30.02 in 2.5 mi Variable 3.5 mph - N/A Rain Light Rain
6:28 AM 62.6 °F 62.6 °F 100% 30.02 in 6.0 mi Variable 1.2 mph - N/A Rain Light Rain
6:33 AM 62.6 °F 62.6 °F 100% 30.03 in 10.0 mi Variable 1.2 mph - N/A Rain Light Rain
6:34 AM 62.6 °F 62.6 °F 100% 30.03 in 10.0 mi Variable 3.5 mph - N/A   Overcast
6:39 AM 62.6 °F 62.6 °F 100% 30.03 in 10.0 mi Variable 6.9 mph - N/A   Overcast
6:44 AM 62.6 °F 62.6 °F 100% 30.03 in 10.0 mi Variable 4.6 mph - N/A   Overcast
6:51 AM 62.6 °F 62.6 °F 100% 30.03 in 10.0 mi Variable 4.6 mph - N/A   Light Drizzle
6:56 AM 62.6 °F 62.6 °F 100% 30.03 in 8.0 mi Variable 4.6 mph - N/A Rain Light Rain
6:58 AM 62.4 °F 62.1 °F 99% 30.04 in 8.0 mi Variable 3.5 mph - 0.08 in Rain Light Rain
7:03 AM 62.6 °F 62.6 °F 100% 30.03 in 9.0 mi Variable 2.3 mph - N/A Rain Light Rain
7:07 AM 62.6 °F 62.6 °F 100% 30.03 in 10.0 mi Variable 2.3 mph - N/A   Overcast
7:37 AM 62.6 °F 62.6 °F 100% 30.04 in 10.0 mi Variable 3.5 mph - N/A   Overcast
7:58 AM 62.2 °F 61.7 °F 98% 30.05 in 10.0 mi Calm Calm - 0.00 in   Overcast
8:02 AM 62.6 °F 62.6 °F 100% 30.05 in 9.0 mi Variable 3.5 mph - N/A   Light Drizzle
8:17 AM 62.6 °F 60.8 °F 94% 30.05 in 4.0 mi Variable 1.2 mph - N/A   Light Drizzle
8:21 AM 62.6 °F 60.8 °F 94% 30.05 in 5.0 mi Variable 3.5 mph - N/A   Overcast
8:29 AM 62.6 °F 60.8 °F 94% 30.06 in 6.0 mi Variable 2.3 mph - N/A   Light Drizzle
8:39 AM 62.6 °F 60.8 °F 94% 30.06 in 2.5 mi Variable 2.3 mph - N/A Rain Light Rain
8:44 AM 62.6 °F 60.8 °F 94% 30.07 in 4.0 mi North 5.8 mph - N/A Rain Light Rain
8:49 AM 62.6 °F 60.8 °F 94% 30.07 in 8.0 mi NNE 2.3 mph - N/A   Overcast
8:58 AM 61.9 °F 61.5 °F 99% 30.08 in 10.0 mi Variable 2.3 mph - 0.01 in   Overcast
9:03 AM 62.6 °F 60.8 °F 94% 30.07 in 10.0 mi Variable 6.9 mph - N/A   Overcast
9:18 AM 62.6 °F 60.8 °F 94% 30.08 in 10.0 mi Variable 3.5 mph - N/A   Overcast
9:30 AM 62.6 °F 60.8 °F 94% 30.08 in 8.0 mi Variable 3.5 mph - N/A Rain Light Rain
9:45 AM 62.6 °F 60.8 °F 94% 30.08 in 8.0 mi Variable 3.5 mph - N/A Rain Light Rain
9:50 AM 60.8 °F 60.8 °F 100% 30.08 in 10.0 mi Variable 2.3 mph - N/A   Light Drizzle
9:52 AM 60.8 °F 60.8 °F 100% 30.08 in 10.0 mi Variable 2.3 mph - N/A   Overcast
9:58 AM 60.8 °F 60.8 °F 100% 30.10 in 10.0 mi Variable 4.6 mph - 0.01 in   Overcast
10:08 AM 62.6 °F 60.8 °F 94% 30.09 in 10.0 mi Variable 6.9 mph - N/A   Overcast
10:43 AM 60.8 °F 60.8 °F 100% 30.09 in 10.0 mi Variable 6.9 mph - N/A   Overcast
10:58 AM 61.7 °F 61.2 °F 98% 30.10 in 10.0 mi Variable 3.5 mph - N/A   Overcast
11:08 AM 60.8 °F 60.8 °F 100% 30.10 in 10.0 mi Variable 4.6 mph - N/A   Overcast
11:13 AM 60.8 °F 60.8 °F 100% 30.10 in 10.0 mi Variable 3.5 mph - N/A   Overcast
11:58 AM 62.1 °F 60.1 °F 93% 30.11 in 10.0 mi Variable 3.5 mph - N/A   Overcast
12:03 PM 62.6 °F 60.8 °F 94% 30.10 in 10.0 mi Variable 2.3 mph - N/A   Overcast
12:58 PM 62.4 °F 59.9 °F 91% 30.11 in 10.0 mi Variable 6.9 mph - N/A   Overcast
1:13 PM 62.6 °F 59.0 °F 88% 30.09 in 10.0 mi NNE 4.6 mph - N/A   Overcast
1:53 PM 64.4 °F 60.8 °F 88% 30.09 in 10.0 mi Variable 2.3 mph - N/A   Overcast
1:58 PM 64.2 °F 60.1 °F 86% 30.10 in 10.0 mi Calm Calm - N/A   Overcast
2:03 PM 64.4 °F 59.0 °F 83% 30.09 in 10.0 mi Variable 4.6 mph - N/A   Overcast
2:48 PM 66.2 °F 59.0 °F 78% 30.08 in 10.0 mi Variable 3.5 mph - N/A   Overcast
2:58 PM 66.0 °F 59.7 °F 80% 30.09 in 10.0 mi Variable 2.3 mph - N/A   Overcast
3:58 PM 66.0 °F 59.0 °F 78% 30.10 in 10.0 mi Variable 5.8 mph - N/A   Overcast
4:58 PM 65.3 °F 57.2 °F 75% 30.12 in 10.0 mi Variable 4.6 mph - N/A   Overcast
5:58 PM 64.0 °F 57.6 °F 79% 30.13 in 10.0 mi Variable 2.3 mph - N/A   Overcast
6:13 PM 64.4 °F 57.2 °F 77% 30.13 in 10.0 mi Variable 3.5 mph - N/A   Overcast
10:34 PM 62.6 °F 62.6 °F 100% 30.16 in 8.0 mi NNE 3.5 mph - N/A   Overcast
10:47 PM 62.6 °F 62.6 °F 100% 30.16 in 9.0 mi Variable 5.8 mph - N/A   Overcast
10:58 PM 62.4 °F 61.9 °F 98% 30.17 in 9.0 mi Variable 5.8 mph - N/A   Overcast
11:03 PM 62.6 °F 60.8 °F 94% 30.16 in 10.0 mi Variable 4.6 mph - N/A   Overcast
11:43 PM 62.6 °F 60.8 °F 94% 30.16 in 9.0 mi Variable 1.2 mph - N/A   Light Drizzle
11:48 PM 62.6 °F 60.8 °F 94% 30.16 in 6.0 mi Variable 4.6 mph - N/A   Light Drizzle
11:52 PM 62.6 °F 60.8 °F 94% 30.16 in 5.0 mi Variable 4.6 mph - N/A   Overcast
11:58 PM 62.1 °F 61.2 °F 97% 30.17 in 6.0 mi Variable 5.8 mph - 0.00 in   Overcast